Location: Kalberh�ni
(46.4610°N, 7.2453°E)
Time: 01:46:24
(UTC+00:00)

Cosmos 1461 - Pass Details

Date: 20 June 2021
Orbit: 513 x 650 km, 65.0° (Epoch: 25 July)

Event Time Altitude Azimuth Distance (km) Brightness Sun altitude
Rises 20:04:09 0° 323° (NW) 2,817 8.7 -5.7°
Reaches altitude 10° 20:06:26 10° 322° (NW) 1,889 7.3 -6.0°
Maximum altitude 20:10:40 83° 237° (WSW) 565 2.9 -6.5°
Drops below altitude 10° 20:14:42 10° 148° (SSE) 1,795 4.8 -7.0°
Enters shadow 20:15:01 - 148° (SSE) 1,918 4.9 -7.0°
